Location: La Brionne
(46.1728°N, 1.7849°E)
Time: 18:45:33
(UTC+00:00)

USA 215 - Pass Details

Date: 26 October 2021
Orbit: 1099 x 1109 km, 123.0° (Epoch: 20 November)

Event Time Altitude Azimuth Distance (km) Brightness Sun altitude
Exits shadow 19:27:04 29° 29° (NNE) 1,904 4.3 -28.1°
Maximum altitude 19:29:37 40° 345° (NNW) 1,572 4.2 -28.6°
Drops below altitude 10° 19:35:36 10° 279° (W) 2,964 6.4 -29.6°
Sets 19:38:14 0° 272° (W) 3,922 7.3 -30.0°
